Tracking 28790 objects as of 19-Apr-2024
HD Live streaming from Space Station
objects crossing your sky now

LEMUR 2 MONSON

Track LEMUR 2 MONSON now!
10-day predictions
LEMUR 2 MONSON is classified as:


NORAD ID: 42839
Int'l Code: 2017-042Q
Perigee: 561.0 km
Apogee: 576.4 km
Inclination: 97.4 °
Period: 95.9 minutes
Semi major axis: 6939 km
RCS: Unknown
Launch date: July 14, 2017
Source: United States (US)
Launch site: TYURATAM MISSILE AND SPACE COMPLEX (TTMTR)
Your satellite tracking list
Your tracking list is empty




NASA's NSSDC Master Catalog

Two Line Element Set (TLE):
1 42839U 17042Q   24109.48512648  .00015300  00000-0  11769-2 0  9999
2 42839  97.3937 300.6137 0011077 224.3059 135.7281 15.01733362368620
Source of the keplerian elements: AFSPC